UPS2406 ESSA-EDDK

Flight info

Callsign UPS2406
Flight time 1h 38m
Altitude 36000
Route NOSLI N850 ABAMA DCT SONAL DCT ROSOK DCT BERIM DCT LARBU DCT PODER Z189 RUNER T858 KOPAG KOPAG1B
Aircraft B752/M-SDE3FGIJ4RWYZ/LB1D1

Departure

Time 2026-04-26 17:14
Airport Stockholm-Arlanda Airport (ESSA)

Arrival

Time 2026-04-26 18:53
Airport Cologne Bonn Airport (EDDK)
Time Latitude Longitude Altitude Speed Heading
2026-04-26 16:46 59.63844 17.93139 112 ft 0 kts 207°
2026-04-26 17:04 59.63852 17.93148 111 ft 2 kts 207°
2026-04-26 17:04 59.63865 17.93162 111 ft 2 kts 217°
2026-04-26 17:05 59.63876 17.93182 111 ft 2 kts 229°
2026-04-26 17:05 59.63885 17.93206 111 ft 2 kts 240°
2026-04-26 17:05 59.63891 17.93233 111 ft 2 kts 252°
2026-04-26 17:05 59.63894 17.93261 111 ft 2 kts 264°
2026-04-26 17:06 59.63894 17.93291 110 ft 2 kts 276°
2026-04-26 17:06 59.63891 17.93320 110 ft 2 kts 288°
2026-04-26 17:06 59.63887 17.93340 110 ft 0 kts 297°
2026-04-26 17:06 59.63884 17.93350 110 ft 0 kts 299°
2026-04-26 17:09 59.63885 17.93347 110 ft 2 kts 299°
2026-04-26 17:09 59.63926 17.93258 111 ft 9 kts 341°
2026-04-26 17:10 59.63988 17.93249 111 ft 9 kts 334°
2026-04-26 17:10 59.64037 17.93115 112 ft 13 kts 299°
2026-04-26 17:10 59.64081 17.92951 114 ft 12 kts 297°
2026-04-26 17:10 59.64124 17.92788 114 ft 16 kts 298°
2026-04-26 17:11 59.64180 17.92570 115 ft 19 kts 297°
2026-04-26 17:11 59.64241 17.92340 115 ft 17 kts 298°
2026-04-26 17:11 59.64287 17.92160 114 ft 14 kts 297°
2026-04-26 17:11 59.64325 17.91966 113 ft 13 kts 258°
2026-04-26 17:12 59.64151 17.91835 112 ft 18 kts 190°
2026-04-26 17:12 59.64024 17.91791 112 ft 20 kts 189°
2026-04-26 17:13 59.63760 17.91567 109 ft 18 kts 222°
2026-04-26 17:13 59.63732 17.91415 108 ft 7 kts 285°
2026-04-26 17:13 59.63868 17.91374 109 ft 38 kts
2026-04-26 17:14 59.64334 17.91542 110 ft 96 kts 10°
2026-04-26 17:14 59.66219 17.92255 562 ft 161 kts
2026-04-26 17:14 59.67377 17.92674 1120 ft 178 kts
2026-04-26 17:15 59.69230 17.90036 2244 ft 194 kts 287°
2026-04-26 17:15 59.69202 17.87268 2817 ft 204 kts 271°
2026-04-26 17:15 59.69068 17.84485 3385 ft 205 kts 274°
2026-04-26 17:16 59.68955 17.81708 3992 ft 205 kts 273°
2026-04-26 17:16 59.68837 17.78871 4542 ft 209 kts 271°
2026-04-26 17:16 59.68468 17.75958 4958 ft 226 kts 259°
2026-04-26 17:16 59.67985 17.72891 5310 ft 243 kts 260°
2026-04-26 17:17 59.67477 17.69616 5706 ft 259 kts 260°
2026-04-26 17:17 59.66953 17.66165 6391 ft 263 kts 260°
2026-04-26 17:17 59.66430 17.62746 7139 ft 265 kts 260°
2026-04-26 17:17 59.65900 17.59265 7913 ft 267 kts 259°
2026-04-26 17:18 59.65358 17.55724 8625 ft 270 kts 260°
2026-04-26 17:18 59.64819 17.52198 9359 ft 271 kts 260°
2026-04-26 17:18 59.64270 17.48641 10038 ft 274 kts 260°
2026-04-26 17:18 59.63634 17.45068 10521 ft 289 kts 249°
2026-04-26 17:19 59.60315 17.39393 10927 ft 350 kts 207°
2026-04-26 17:19 59.57901 17.38166 11373 ft 367 kts 191°
2026-04-26 17:19 59.55325 17.37564 11880 ft 376 kts 191°
2026-04-26 17:20 59.52754 17.36953 12501 ft 381 kts 191°
2026-04-26 17:20 59.50988 17.36524 12801 ft 387 kts 191°
2026-04-26 17:20 59.47378 17.35640 13521 ft 394 kts 192°
2026-04-26 17:20 59.44662 17.34969 14011 ft 401 kts 191°
2026-04-26 17:21 59.41871 17.34278 14524 ft 406 kts 191°
2026-04-26 17:21 59.39071 17.33590 15129 ft 408 kts 191°
2026-04-26 17:21 59.36237 17.32891 15712 ft 411 kts 191°
2026-04-26 17:21 59.33372 17.32183 16149 ft 417 kts 191°
2026-04-26 17:22 59.30521 17.31483 16701 ft 419 kts 191°
2026-04-26 17:22 59.27614 17.30770 17241 ft 421 kts 191°
2026-04-26 17:22 59.24701 17.30054 17675 ft 426 kts 191°
2026-04-26 17:22 59.21735 17.29328 18165 ft 429 kts 191°
2026-04-26 17:23 59.18763 17.28602 18675 ft 431 kts 191°
2026-04-26 17:23 59.15810 17.27880 19117 ft 435 kts 191°
2026-04-26 17:23 59.12806 17.27149 19622 ft 437 kts 191°
2026-04-26 17:23 59.09814 17.26253 20073 ft 435 kts 200°
2026-04-26 17:24 59.06997 17.24226 20464 ft 427 kts 216°
2026-04-26 17:24 59.04557 17.21054 20936 ft 419 kts 226°
2026-04-26 17:24 59.02259 17.17486 21399 ft 420 kts 226°
2026-04-26 17:24 59.00010 17.13958 21857 ft 422 kts 227°
2026-04-26 17:25 58.97726 17.10334 22323 ft 424 kts 227°
2026-04-26 17:25 58.95457 17.06714 22682 ft 428 kts 227°
2026-04-26 17:25 58.93145 17.03026 23251 ft 426 kts 228°
2026-04-26 17:25 58.90893 16.99434 23824 ft 424 kts 228°
2026-04-26 17:26 58.88612 16.95794 24416 ft 421 kts 229°
2026-04-26 17:26 58.86362 16.92208 24952 ft 419 kts 229°
2026-04-26 17:26 58.84139 16.88667 25455 ft 418 kts 229°
2026-04-26 17:26 58.81896 16.85100 25918 ft 417 kts 229°
2026-04-26 17:27 58.79649 16.81532 26322 ft 418 kts 229°
2026-04-26 17:27 58.77420 16.77998 26660 ft 420 kts 229°
2026-04-26 17:27 58.75141 16.74392 27001 ft 422 kts 229°
2026-04-26 17:27 58.72875 16.70814 27334 ft 424 kts 229°
2026-04-26 17:28 58.70593 16.67218 27671 ft 426 kts 229°
2026-04-26 17:28 58.68287 16.63591 28006 ft 428 kts 229°
2026-04-26 17:28 58.66004 16.60004 28341 ft 429 kts 229°
2026-04-26 17:28 58.63663 16.56335 28679 ft 430 kts 229°
2026-04-26 17:29 58.61360 16.52732 29012 ft 431 kts 229°
2026-04-26 17:29 58.59811 16.50312 29235 ft 432 kts 229°
2026-04-26 17:29 58.56702 16.45463 29687 ft 433 kts 229°
2026-04-26 17:29 58.54385 16.41854 29994 ft 434 kts 229°
2026-04-26 17:30 58.52018 16.38174 30258 ft 436 kts 229°
2026-04-26 17:30 58.49654 16.34508 30518 ft 438 kts 228°
2026-04-26 17:30 58.47306 16.30870 30780 ft 440 kts 228°
2026-04-26 17:30 58.44900 16.27152 31001 ft 443 kts 228°
2026-04-26 17:31 58.42491 16.23435 31202 ft 446 kts 228°
2026-04-26 17:31 58.40103 16.19758 31405 ft 449 kts 228°
2026-04-26 17:31 58.37669 16.16017 31612 ft 451 kts 228°
2026-04-26 17:31 58.35206 16.12237 31815 ft 454 kts 228°
2026-04-26 17:32 58.32758 16.08487 32022 ft 456 kts 228°
2026-04-26 17:32 58.30268 16.04683 32233 ft 458 kts 228°
2026-04-26 17:32 58.27784 16.00894 32510 ft 458 kts 228°
2026-04-26 17:32 58.25315 15.97137 32790 ft 457 kts 228°
2026-04-26 17:33 58.22826 15.93354 33075 ft 457 kts 227°
2026-04-26 17:33 58.20343 15.89585 33355 ft 456 kts 227°
2026-04-26 17:33 58.17888 15.85868 33633 ft 455 kts 227°
2026-04-26 17:34 58.12948 15.78406 34199 ft 452 kts 227°
2026-04-26 17:34 58.10520 15.74749 34478 ft 450 kts 227°
2026-04-26 17:34 58.08064 15.71055 34754 ft 448 kts 227°
2026-04-26 17:34 58.05618 15.67384 34957 ft 447 kts 227°
2026-04-26 17:35 58.03178 15.63727 35127 ft 446 kts 227°
2026-04-26 17:35 58.00755 15.60104 35291 ft 446 kts 227°
2026-04-26 17:35 57.98228 15.56778 35468 ft 453 kts 218°
2026-04-26 17:35 57.95445 15.53935 35649 ft 454 kts 216°
2026-04-26 17:36 57.92696 15.51187 35791 ft 453 kts 216°
2026-04-26 17:36 57.89965 15.48479 35934 ft 452 kts 216°
2026-04-26 17:36 57.87125 15.45683 36074 ft 450 kts 216°
2026-04-26 17:37 57.81588 15.40262 36157 ft 450 kts 215°
2026-04-26 17:37 57.76046 15.34866 36158 ft 454 kts 214°
2026-04-26 17:38 57.67599 15.26686 36162 ft 460 kts 214°
2026-04-26 17:38 57.61866 15.21160 36167 ft 463 kts 214°
2026-04-26 17:39 57.56145 15.15665 36184 ft 467 kts 214°
2026-04-26 17:39 57.50315 15.10086 36182 ft 471 kts 213°
2026-04-26 17:40 57.45486 15.05481 36172 ft 473 kts 214°
2026-04-26 17:40 57.38624 14.98960 36179 ft 473 kts 213°
2026-04-26 17:41 57.32790 14.93439 36176 ft 471 kts 213°
2026-04-26 17:41 57.26953 14.87932 36178 ft 471 kts 213°
2026-04-26 17:42 57.21108 14.82439 36178 ft 471 kts 213°
2026-04-26 17:42 57.15247 14.76949 36190 ft 472 kts 213°
2026-04-26 17:43 57.09414 14.71507 36187 ft 471 kts 213°
2026-04-26 17:43 57.03605 14.66105 36186 ft 470 kts 213°
2026-04-26 17:44 56.97743 14.60674 36191 ft 470 kts 213°
2026-04-26 17:44 56.91931 14.55308 36193 ft 470 kts 213°
2026-04-26 17:45 56.86118 14.49958 36181 ft 468 kts 213°
2026-04-26 17:45 56.80300 14.44623 36185 ft 468 kts 213°
2026-04-26 17:46 56.74478 14.39303 36188 ft 468 kts 213°
2026-04-26 17:46 56.68638 14.33986 36203 ft 469 kts 212°
2026-04-26 17:47 56.63797 14.29592 36202 ft 469 kts 212°
2026-04-26 17:47 56.56982 14.23429 36209 ft 468 kts 212°
2026-04-26 17:48 56.51143 14.18167 36211 ft 468 kts 212°
2026-04-26 17:48 56.45326 14.12943 36210 ft 468 kts 212°
2026-04-26 17:49 56.39509 14.07739 36217 ft 466 kts 212°
2026-04-26 17:49 56.33722 14.02576 36227 ft 466 kts 212°
2026-04-26 17:50 56.27906 13.97407 36226 ft 466 kts 212°
2026-04-26 17:50 56.22067 13.92236 36224 ft 466 kts 212°
2026-04-26 17:51 56.16290 13.87135 36231 ft 466 kts 212°
2026-04-26 17:51 56.10451 13.82000 36230 ft 465 kts 212°
2026-04-26 17:52 56.04665 13.76925 36237 ft 465 kts 212°
2026-04-26 17:52 55.98854 13.71848 36237 ft 464 kts 212°
2026-04-26 17:53 55.93037 13.66781 36236 ft 465 kts 212°
2026-04-26 17:54 55.84346 13.59245 36232 ft 463 kts 212°
2026-04-26 17:54 55.78569 13.54254 36231 ft 463 kts 212°
2026-04-26 17:55 55.72797 13.49285 36239 ft 463 kts 212°
2026-04-26 17:55 55.66998 13.44309 36243 ft 463 kts 212°
2026-04-26 17:56 55.61183 13.39337 36250 ft 463 kts 212°
2026-04-26 17:57 55.49600 13.29480 36256 ft 464 kts 211°
2026-04-26 17:57 55.43800 13.24570 36255 ft 462 kts 211°
2026-04-26 17:58 55.32194 13.14790 36255 ft 464 kts 211°
2026-04-26 17:59 55.23521 13.07525 36272 ft 462 kts 211°
2026-04-26 17:59 55.17706 13.02673 36274 ft 461 kts 211°
2026-04-26 18:00 55.11913 12.97855 36280 ft 461 kts 211°
2026-04-26 18:00 55.06123 12.93055 36277 ft 461 kts 211°
2026-04-26 18:01 55.00332 12.88268 36277 ft 461 kts 211°
2026-04-26 18:01 54.94556 12.83511 36276 ft 461 kts 211°
2026-04-26 18:02 54.89825 12.79356 36279 ft 454 kts 219°
2026-04-26 18:02 54.84275 12.71212 36271 ft 448 kts 227°
2026-04-26 18:03 54.79560 12.64288 36272 ft 446 kts 225°
2026-04-26 18:03 54.74734 12.57517 36277 ft 447 kts 224°
2026-04-26 18:04 54.69872 12.50835 36278 ft 447 kts 224°
2026-04-26 18:05 54.62550 12.40885 36281 ft 446 kts 224°
2026-04-26 18:05 54.57686 12.34315 36284 ft 446 kts 223°
2026-04-26 18:06 54.52765 12.27693 36286 ft 447 kts 223°
2026-04-26 18:06 54.47898 12.21166 36288 ft 446 kts 223°
2026-04-26 18:07 54.43015 12.14636 36282 ft 447 kts 223°
2026-04-26 18:07 54.38076 12.08055 36267 ft 448 kts 223°
2026-04-26 18:08 54.33177 12.01545 36267 ft 447 kts 223°
2026-04-26 18:08 54.28258 11.95029 36273 ft 447 kts 223°
2026-04-26 18:09 54.23345 11.88543 36274 ft 446 kts 223°
2026-04-26 18:09 54.18430 11.82073 36274 ft 446 kts 223°
2026-04-26 18:10 54.13504 11.75607 36272 ft 446 kts 223°
2026-04-26 18:10 54.08575 11.69158 36274 ft 447 kts 223°
2026-04-26 18:11 54.03653 11.62740 36273 ft 446 kts 223°
2026-04-26 18:11 53.98740 11.56350 36276 ft 446 kts 223°
2026-04-26 18:12 53.93803 11.49950 36272 ft 447 kts 223°
2026-04-26 18:12 53.88891 11.43602 36268 ft 447 kts 223°
2026-04-26 18:13 53.83973 11.37265 36267 ft 446 kts 223°
2026-04-26 18:13 53.79040 11.30929 36282 ft 446 kts 222°
2026-04-26 18:14 53.74104 11.24607 36281 ft 447 kts 222°
2026-04-26 18:14 53.69117 11.18240 36277 ft 447 kts 222°
2026-04-26 18:15 53.64182 11.11956 36278 ft 448 kts 222°
2026-04-26 18:15 53.59188 11.05619 36277 ft 449 kts 222°
2026-04-26 18:16 53.54195 10.99303 36276 ft 447 kts 222°
2026-04-26 18:16 53.46778 10.89953 36272 ft 446 kts 222°
2026-04-26 18:17 53.41818 10.83723 36276 ft 447 kts 222°
2026-04-26 18:17 53.36827 10.77476 36270 ft 446 kts 222°
2026-04-26 18:18 53.31864 10.71279 36273 ft 447 kts 222°
2026-04-26 18:18 53.26860 10.65051 36273 ft 447 kts 222°
2026-04-26 18:19 53.21917 10.58916 36277 ft 446 kts 222°
2026-04-26 18:19 53.16908 10.52719 36274 ft 448 kts 222°
2026-04-26 18:20 53.11916 10.46561 36270 ft 449 kts 222°
2026-04-26 18:20 53.07733 10.41415 36266 ft 448 kts 222°
2026-04-26 18:21 53.01897 10.34257 36264 ft 448 kts 221°
2026-04-26 18:21 52.96920 10.28172 36271 ft 448 kts 221°
2026-04-26 18:22 52.91885 10.22034 36273 ft 448 kts 221°
2026-04-26 18:22 52.86899 10.15973 36269 ft 448 kts 221°
2026-04-26 18:23 52.81862 10.09868 36272 ft 449 kts 221°
2026-04-26 18:23 52.76838 10.03796 36282 ft 449 kts 221°
2026-04-26 18:24 52.71797 9.97722 36280 ft 448 kts 221°
2026-04-26 18:24 52.66765 9.91676 36279 ft 449 kts 221°
2026-04-26 18:25 52.61701 9.85611 36282 ft 450 kts 221°
2026-04-26 18:25 52.56646 9.79573 36283 ft 450 kts 221°
2026-04-26 18:26 52.51582 9.73543 36284 ft 451 kts 221°
2026-04-26 18:26 52.46542 9.67558 36282 ft 450 kts 221°
2026-04-26 18:27 52.41470 9.61552 36285 ft 449 kts 221°
2026-04-26 18:27 52.36414 9.55583 36278 ft 450 kts 221°
2026-04-26 18:28 52.33863 9.52576 35971 ft 456 kts 221°
2026-04-26 18:28 52.31299 9.49561 35639 ft 455 kts 221°
2026-04-26 18:28 52.28742 9.46559 35293 ft 451 kts 221°
2026-04-26 18:28 52.26228 9.43611 34954 ft 450 kts 221°
2026-04-26 18:29 52.23668 9.40613 34584 ft 451 kts 221°
2026-04-26 18:29 52.21130 9.37644 34195 ft 454 kts 221°
2026-04-26 18:29 52.18571 9.34653 33807 ft 456 kts 220°
2026-04-26 18:29 52.16014 9.31671 33429 ft 458 kts 220°
2026-04-26 18:30 52.13443 9.28677 33044 ft 458 kts 220°
2026-04-26 18:30 52.10835 9.25645 32640 ft 460 kts 220°
2026-04-26 18:30 52.08236 9.22628 32226 ft 461 kts 220°
2026-04-26 18:30 52.05625 9.19600 31808 ft 461 kts 220°
2026-04-26 18:31 52.03005 9.16568 31388 ft 460 kts 220°
2026-04-26 18:31 52.00447 9.13613 30978 ft 457 kts 220°
2026-04-26 18:31 51.97861 9.10628 30555 ft 454 kts 220°
2026-04-26 18:31 51.95287 9.07661 30126 ft 450 kts 220°
2026-04-26 18:32 51.92763 9.04757 29694 ft 447 kts 220°
2026-04-26 18:32 51.90245 9.01861 29271 ft 444 kts 220°
2026-04-26 18:32 51.87765 8.99014 28852 ft 442 kts 220°
2026-04-26 18:32 51.85272 8.96156 28465 ft 438 kts 219°
2026-04-26 18:33 51.82775 8.93298 28092 ft 436 kts 219°
2026-04-26 18:33 51.80318 8.90490 27716 ft 434 kts 219°
2026-04-26 18:33 51.77850 8.87671 27327 ft 431 kts 219°
2026-04-26 18:33 51.75436 8.84912 26943 ft 428 kts 220°
2026-04-26 18:34 51.73174 8.81788 26489 ft 423 kts 230°
2026-04-26 18:34 51.71136 8.78396 25957 ft 422 kts 229°
2026-04-26 18:34 51.69067 8.75081 25439 ft 418 kts 229°
2026-04-26 18:34 51.66996 8.71825 24918 ft 413 kts 228°
2026-04-26 18:35 51.64936 8.68626 24409 ft 408 kts 228°
2026-04-26 18:35 51.62901 8.65493 23925 ft 404 kts 228°
2026-04-26 18:35 51.60884 8.62405 23446 ft 402 kts 227°
2026-04-26 18:35 51.58809 8.59404 22978 ft 401 kts 224°
2026-04-26 18:36 51.56698 8.56491 22511 ft 399 kts 225°
2026-04-26 18:36 51.54599 8.53565 22043 ft 397 kts 225°
2026-04-26 18:36 51.52528 8.50675 21591 ft 394 kts 225°
2026-04-26 18:36 51.50496 8.47837 21139 ft 391 kts 225°
2026-04-26 18:37 51.48456 8.44988 20683 ft 389 kts 225°
2026-04-26 18:37 51.46419 8.42145 20220 ft 386 kts 225°
2026-04-26 18:37 51.44401 8.39330 19768 ft 383 kts 225°
2026-04-26 18:37 51.42404 8.36548 19323 ft 381 kts 224°
2026-04-26 18:38 51.40420 8.33786 18900 ft 378 kts 224°
2026-04-26 18:38 51.38469 8.31075 18484 ft 376 kts 224°
2026-04-26 18:38 51.36487 8.28322 18055 ft 374 kts 224°
2026-04-26 18:38 51.34531 8.25610 17639 ft 372 kts 223°
2026-04-26 18:39 51.32585 8.22913 17208 ft 370 kts 223°
2026-04-26 18:39 51.30648 8.20234 16804 ft 368 kts 223°
2026-04-26 18:39 51.28717 8.17565 16407 ft 366 kts 223°
2026-04-26 18:39 51.26792 8.14907 16007 ft 365 kts 223°
2026-04-26 18:40 51.24873 8.12262 15606 ft 364 kts 223°
2026-04-26 18:40 51.22960 8.09627 15204 ft 363 kts 223°
2026-04-26 18:40 51.21077 8.07036 14830 ft 361 kts 223°
2026-04-26 18:40 51.19172 8.04419 14451 ft 359 kts 223°
2026-04-26 18:41 51.17280 8.01823 14077 ft 357 kts 223°
2026-04-26 18:41 51.15416 7.99267 13707 ft 355 kts 224°
2026-04-26 18:41 51.13534 7.96689 13330 ft 354 kts 224°
2026-04-26 18:41 51.11682 7.94156 12959 ft 352 kts 224°
2026-04-26 18:42 51.09830 7.91625 12584 ft 350 kts 224°
2026-04-26 18:42 51.07993 7.89116 12214 ft 348 kts 224°
2026-04-26 18:42 51.06157 7.86615 11850 ft 342 kts 224°
2026-04-26 18:42 51.04393 7.84213 11594 ft 333 kts 224°
2026-04-26 18:43 51.02642 7.81831 11344 ft 325 kts 224°
2026-04-26 18:43 51.00935 7.79511 11083 ft 318 kts 224°
2026-04-26 18:43 50.99273 7.77253 10823 ft 311 kts 224°
2026-04-26 18:43 50.97666 7.75074 10420 ft 303 kts 224°
2026-04-26 18:44 50.96082 7.72929 10037 ft 289 kts 224°
2026-04-26 18:44 50.94561 7.70866 9702 ft 288 kts 224°
2026-04-26 18:44 50.93050 7.68819 9328 ft 288 kts 224°
2026-04-26 18:44 50.91533 7.66767 8961 ft 287 kts 224°
2026-04-26 18:45 50.90007 7.64705 8592 ft 287 kts 224°
2026-04-26 18:45 50.88536 7.62719 8226 ft 287 kts 224°
2026-04-26 18:45 50.87025 7.60682 7849 ft 286 kts 223°
2026-04-26 18:45 50.85513 7.58645 7360 ft 285 kts 223°
2026-04-26 18:46 50.84034 7.56658 6886 ft 275 kts 223°
2026-04-26 18:46 50.82587 7.54712 6416 ft 267 kts 223°
2026-04-26 18:46 50.81196 7.52843 6003 ft 258 kts 223°
2026-04-26 18:46 50.79855 7.51044 5719 ft 248 kts 223°
2026-04-26 18:47 50.78545 7.49285 5435 ft 248 kts 223°
2026-04-26 18:47 50.77228 7.47518 5134 ft 248 kts 223°
2026-04-26 18:47 50.75930 7.45778 4814 ft 247 kts 222°
2026-04-26 18:47 50.74626 7.44033 4462 ft 239 kts 222°
2026-04-26 18:48 50.73389 7.42373 4231 ft 232 kts 224°
2026-04-26 18:48 50.72503 7.40312 4028 ft 222 kts 257°
2026-04-26 18:48 50.72492 7.37983 3841 ft 211 kts 289°
2026-04-26 18:48 50.72983 7.35818 3620 ft 211 kts 294°
2026-04-26 18:49 50.73593 7.33867 3375 ft 210 kts 312°
2026-04-26 18:49 50.74636 7.32263 3149 ft 209 kts 319°
2026-04-26 18:49 50.75699 7.30699 2895 ft 209 kts 319°
2026-04-26 18:49 50.76743 7.29170 2621 ft 197 kts 319°
2026-04-26 18:50 50.77718 7.27756 2399 ft 181 kts 320°
2026-04-26 18:50 50.78626 7.26448 2152 ft 178 kts 320°
2026-04-26 18:50 50.79553 7.25119 1922 ft 181 kts 320°
2026-04-26 18:50 50.80455 7.23821 1693 ft 165 kts 321°
2026-04-26 18:51 50.81264 7.22658 1475 ft 148 kts 321°
2026-04-26 18:51 50.81986 7.21620 1250 ft 135 kts 321°
2026-04-26 18:51 50.82689 7.20617 1100 ft 141 kts 321°
2026-04-26 18:51 50.83429 7.19557 901 ft 140 kts 320°
2026-04-26 18:52 50.84135 7.18544 695 ft 135 kts 320°
2026-04-26 18:52 50.84847 7.17525 536 ft 141 kts 319°
2026-04-26 18:52 50.85563 7.16500 345 ft 139 kts 319°
2026-04-26 18:52 50.86236 7.15531 291 ft 118 kts 318°
2026-04-26 18:53 50.86686 7.14876 274 ft 51 kts 318°
2026-04-26 18:53 50.86853 7.14559 266 ft 33 kts 294°
2026-04-26 18:53 50.86887 7.14339 261 ft 10 kts 279°
2026-04-26 18:53 50.86888 7.14317 261 ft 0 kts 278°
2026-04-26 18:55 50.86889 7.14312 260 ft 3 kts 278°
2026-04-26 18:55 50.86900 7.14201 258 ft 17 kts 279°
2026-04-26 18:55 50.86932 7.13945 253 ft 26 kts 292°
2026-04-26 18:56 50.87055 7.13731 248 ft 26 kts 317°
2026-04-26 18:56 50.87192 7.13535 244 ft 27 kts 318°
2026-04-26 18:56 50.87313 7.13356 241 ft 23 kts 317°
2026-04-26 18:56 50.87427 7.13194 239 ft 11 kts 318°
2026-04-26 18:57 50.87441 7.13126 238 ft 7 kts 242°
2026-04-26 18:57 50.87422 7.13083 238 ft 6 kts 228°
2026-04-26 18:57 50.87398 7.13042 238 ft 0 kts 228°